[Iaude] MPEC M35: 2022 MP [a=0.86,e=0.20,i=14.5,H=23.9]

mpec at marsden.cfa.harvard.edu mpec at marsden.cfa.harvard.edu
Wed Jun 22 08:33:35 EDT 2022


M.P.E.C. 2022-M35                                 Issued 2022 June 22, 12:31 UT

     The Minor Planet Electronic Circulars contain information on unusual
         minor planets and routine data on comets.  They are published
    on behalf of Division F of the International Astronomical Union by the
          Minor Planet Center, Smithsonian Astrophysical Observatory,
                          Cambridge, MA 02138, U.S.A.

             Prepared using the Tamkin Foundation Computer Network

                              MPC at CFA.HARVARD.EDU
            URL https://www.minorplanetcenter.net/    ISSN 1523-6714

                                    2022 MP                                     


Observations:
     K22M00P* C2022 06 21.36455818 41 04.022+34 57 04.43         18.11oVEM035T08
     K22M00P  C2022 06 21.36778818 41 00.194+34 56 34.04         17.98oVEM035T08
     K22M00P  C2022 06 21.38930118 40 35.033+34 53 13.78         18.21oVEM035T08
     K22M00P  C2022 06 21.41747118 40 01.642+34 48 45.54         18.16oVEM035T08
     K22M00P KC2022 06 21.86842618 31 48.93 +33 26 36.8          18.9 GVEM035L02
     K22M00P KC2022 06 21.86866918 31 50.32 +33 25 59.4          17.6 GVEM035104
     K22M00P KC2022 06 21.88024918 31 36.05 +33 23 52.7          18.2 GVEM035104
     K22M00P KC2022 06 21.88410318 31 31.30 +33 23 10.1          18.0 GVEM035104
     K22M00P KC2022 06 21.88521418 31 27.90 +33 23 29.6          19.1 GVEM035L02
     K22M00P KC2022 06 21.89129 18 31 22.62 +33 21 44.5          18.1 GXEM035G15
     K22M00P KC2022 06 21.89492 18 31 18.15 +33 21 04.8          18.2 GXEM035G15
     K22M00P KC2022 06 21.89882 18 31 13.28 +33 20 22.2          18.0 GXEM035G15
     K22M00P KC2022 06 21.92391618 30 43.159+33 14 57.44         18.6 GVEM035Z80
     K22M00P KC2022 06 21.92997718 30 35.630+33 13 49.33         18.4 GVEM035Z80
     K22M00P KC2022 06 21.93603618 30 28.051+33 12 40.90         18.3 GVEM035Z80
     K22M00P KC2022 06 21.95297 18 30 02.14 +33 09 48.2          17.8 GXEM035G02
     K22M00P KC2022 06 21.95885 18 29 54.66 +33 08 39.6          17.7 GXEM035G02
     K22M00P KC2022 06 21.96666 18 29 44.78 +33 07 07.5          17.8 GXEM035G02
     K22M00P KC2022 06 21.97666818 29 38.09 +33 05 34.3          17.5 GXEM035958
     K22M00P KC2022 06 21.97916318 29 34.277+33 04 24.96         18.1 GVEM035J95
     K22M00P KC2022 06 21.98118618 29 31.716+33 04 00.98         17.9 GVEM035J95
     K22M00P KC2022 06 21.98319218 29 29.186+33 03 37.98         18.2 GVEM035J95
     K22M00P KC2022 06 21.98385118 29 28.93 +33 04 10.6          18.0 GXEM035958
     K22M00P KC2022 06 21.98595618 29 25.697+33 03 05.51         18.1 GVEM035J95
     K22M00P KC2022 06 21.98751518 29 24.18 +33 03 27.6          17.6 GXEM035958
     K22M00P KC2022 06 21.99359918 29 16.07 +33 02 12.0          18.1 GXEM035I93
     K22M00P KC2022 06 21.99484518 29 14.46 +33 01 57.1          18.4 GXEM035I93
     K22M00P KC2022 06 21.99608518 29 12.86 +33 01 42.6          18.2 GXEM035I93
     K22M00P KC2022 06 21.99732518 29 11.27 +33 01 27.8          18.5 GXEM035I93
     K22M00P KC2022 06 22.01309 18 28 47.48 +32 58 23.4          18.3 GVEM035M26
     K22M00P KC2022 06 22.02448 18 28 32.79 +32 56 05.3          18.3 GVEM035M26
     K22M00P KC2022 06 22.07797318 27 50.90 +32 44 56.1          19.3 VZEM035W33
     K22M00P KC2022 06 22.08329118 27 44.28 +32 43 53.2          18.4 VZEM035W33
     K22M00P KC2022 06 22.08865118 27 37.54 +32 42 51.8          18.0 VZEM035W33
     K22M00P KC2022 06 22.09828918 27 25.363+32 41 00.31         18.2 GXEM035W34
     K22M00P KC2022 06 22.10470818 27 17.148+32 39 45.79         18.1 GXEM035W34
     K22M00P KC2022 06 22.11113218 27 08.940+32 38 30.95         17.5 GXEM035W34
     K22M00P KC2022 06 22.21074318 24 59.26 +32 17 58.8          18.3 VuEM035H21
     K22M00P KC2022 06 22.21573 18 24 56.56 +32 16 18.4          17.2 GXEM035V41
     K22M00P KC2022 06 22.21652418 24 51.54 +32 16 46.5          18.2 VuEM035H21
     K22M00P KC2022 06 22.21866818 24 48.67 +32 16 19.6          18.1 VuEM035H21
     K22M00P KC2022 06 22.22317 18 24 46.77 +32 14 46.3          18.2 GXEM035V41
     K22M00P KC2022 06 22.23061 18 24 36.83 +32 13 12.2          17.7 GXEM035V41

Observer details:
104 San Marcello Pistoiese.  Observers P. Bacci, M. Maestripieri.  Measurers
    P. Bacci, L. Tesi, G. Fagioli.  0.60-m F4 Reflector + CCD.
958 Observatoire de Dax.  Observer P. Dupouy.  0.50-m f/4.5 Reflector + CCD.
G02 KYSUCE Observatory, Kysucke Nove Mesto.  Observer M. Urbanik.  0.40-m
    f/5.5 Corrected Dall-Kirkham + CCD.
G15 Magroforte Observatory, Alessandria.  Observer A. De Pieri.  0.23-m f/6.7
    Sc + Ccd + CCD.
H21 Astronomical Research Observatory, Westfield.  Observer R. Holmes.
    Measurers T. Linder, R. Holmes, L. Horn.  0.76-m f/3.0 astrograph + CCD.
I93 St Pardon de Conques.  Observer F. Losse.  0.40-m f/3.7 reflector + CCD.
J95 Great Shefford.  Observer P. Birtwhistle.  0.41-m f/6.3 Schmidt-Cassegrain
    + CCD.
L02 NOAK Observatory, Stavraki.  Observer N. Sioulas.  0.25-m f/4.7 reflector
    + CCD.
M26 Zen Observatory, Scandicci.  Observers M. Lombardo, K. Lombardo.  Measurer
    M. Lombardo.  0.30-m f/8 Ritchey-Chretien + CCD.
T08 ATLAS-MLO, Mauna Loa.  Observers L. Denneau, R. Siverd, J. Tonry, H.
    Weiland.  Measurers L. Denneau, N. Erasmus, A. Fitzsimmons, A. Lawrence,
    J. Robinson, R. Siverd, J. Tonry, H. Weiland.  0.5-m Reflector + CCD.
V41 Rapid City.  Observer R. Michael.  Celestron RASA, 0.28m + CCD.
W33 Transit Dreams Observatory, Campobello.  Observer D. Wilde.  .36m SCT f2 +
    CCD.
W34 Squirrel Valley Observatory, Columbus.  Observer R. L. Flynn.  0.36-m
    f/1.9 0.36 Aplanatic Schmidt Cassegrain + CCD.
Z80 Northolt Branch Observatory.  Observer G. Wells.  Measurers G. Wells, D.
    Bamberger.  0.25-m f/8.0 Ritchey-Chretien + CCD.

Orbital elements:
2022 MP                                                  Earth MOID = 0.0121 AU
Epoch 2022 Aug. 9.0 TT = JDT 2459800.5                  Veres                   
M 247.38513              (2000.0)            P               Q                  
n   1.23701909     Peri.  349.33445     +0.08399519     -0.96463105             
a   0.8594457      Node    95.50806     +0.93172566     -0.01287911             
e   0.2024142      Incl.   14.53803     +0.35331588     +0.26328895             
P   0.80           H   23.95          G   0.15           U   7                  
Residuals in seconds of arc
220621 T08  0.1+  0.4+    220621 G02  0.1-  0.7-    220622 M26  0.2+  0.2-
220621 T08  0.8-  0.2-    220621 G02  0.5-  0.5-    220622 W33  1.2-  1.2+
220621 T08  0.2-  0.1-    220621 G02  0.1-  0.7-    220622 W33  0.5-  0.8-
220621 T08  0.1+  0.0     220621 958  0.6+  0.5+    220622 W33  0.4-  0.5-
220621 L02  0.2-  0.2-    220621 J95  0.0   0.2+    220622 W34  0.4+  0.0
220621 104  0.5+  0.1+    220621 J95  0.0   0.2-    220622 W34  0.1-  0.0
220621 104  0.2+  0.1+    220621 J95  0.1+  0.2+    220622 W34  0.0   0.1+
220621 104  0.3+  0.1-    220621 958  1.0+  0.4+    220622 H21  0.0   0.2+
220621 L02 (0.7-  2.1-)   220621 J95  0.2+  0.1+    220622 V41  0.7-  0.1+
220621 G15  0.4-  0.8-    220621 958  0.3+  0.3+    220622 H21  0.1+  0.2+
220621 G15  0.0   0.3-    220621 I93  0.2+  0.3+    220622 H21  0.2+  0.2+
220621 G15  0.4-  0.4+    220621 I93  0.1+  0.0     220622 V41  0.3-  0.2+
220621 Z80  0.3+  0.8-    220621 I93  0.0   0.1+    220622 V41  1.4-  1.2-
220621 Z80  0.1+  0.5-    220621 I93  0.1+  0.0
220621 Z80  0.6-  0.3-    220622 M26  0.0   0.3-

Ephemeris:
2022 MP                  a,e,i = 0.86, 0.20, 15                  q = 0.6855
Date    TT    R. A. (2000) Decl.     Delta      r    Elong.  Phase     V
2022 05 23    20 42 52.8 +45 58 35   0.1494  1.0171    87.6    84.0    22.8
...
2022 06 07    20 22 02.3 +45 18 47   0.09002 1.0309    97.8    77.2    21.5
...
2022 06 15    19 49 27.0 +43 05 02   0.05651 1.0332   106.5    70.5    20.3
...
2022 06 21    18 47 02.6 +35 52 32   0.03220 1.0325   119.5    58.9    18.7
2022 06 22    18 29 06.5 +33 02 07   0.02851 1.0321   123.1    55.5    18.3
2022 06 23    18 07 41.1 +29 08 26   0.02506 1.0318   127.4    51.5    17.9
...
2022 06 29    14 40 36.9 -25 08 36   0.01881 1.0283   128.0    51.2    17.3
...
2022 07 07    11 36 02.7 -48 17 52   0.04682 1.0205    93.4    84.0    20.3
...
2022 07 22    10 19 03.7 -50 12 30   0.1085  0.9966    76.6    97.3    22.6

M. P. C. Staff               (C) Copyright 2022 MPC           M.P.E.C. 2022-M35




More information about the Iaude mailing list